User: anonymous   Login
Location: La Pernelle
(49.6188°N, 1.2999°W)
Time: 02:15:47
(UTC+00:00)
Language:

Cosmos 1346 Rocket - Orbit

View from above orbital plane
View from above orbital plane
View from above satellite
View from above satellite

Ground track
Ground track

The orbit data is extracted from the following two-line orbital elements,

1 13121U 82027B   21264.72126906  .00000278  00000-0  15919-4 0  9991
2 13121  81.1739 128.8036 0015036 346.4892  13.5928 15.09280020151842
Epoch (UTC): 21 September 2021 17:18:37
Eccentricity: 0.0015036
inclination: 81.1739°
perigee height: 528 km
apogee height: 549 km
right ascension of ascending node: 128.8036°
argument of perigee: 346.4892°
revolutions per day: 15.09280020
mean anomaly at epoch: 13.5928°
orbit number at epoch: 15184

The dashed part of the orbit path shows where the satellite is in the earth's shadow,  

DLR